[[{"header":{"parameterUnit":"m.s-1","parameterCategory":1,"la1":30.2991,"la2":30.254,"lo1":-89.0895,"lo2":-89.0444,"dy":0.0017,"dx":0.0017,"nx":28,"ny":28,"refTime":"2024-08-22T09:00:00:Z","depth":0,"parameterNumber":2,"parameterNumberName":"U-component_of_WINDS"},"data":[0,0,0,0,0,0,0,0,0,0,0,0,0,0,0,0,0,0,0,0,0,0,0,0,0,0,0,0,0,0,0,0,0,0,0,0,0,0,0,0,0,0,0,0,0,0,0,0,0,0,0,0,0,0,0,0,0,0,-2.9168,-2.9171,0,-2.9477,-2.9481,-2.9484,-2.9617,-2.9616,-2.9616,-2.9615,-2.9934,-2.9943,-2.9951,0,0,0,0,0,0,0,0,0,0,0,0,0,-2.8693,-2.8701,-2.9167,-2.9171,-2.9175,-2.9476,-2.9481,-2.9485,-2.9617,-2.9616,-2.9615,-2.9615,-2.9931,-2.9941,-2.9952,0,0,0,0,0,0,0,0,0,0,0,0,0,-2.894,-2.8704,-2.9167,-2.9277,-2.929,-2.9476,-2.9481,-2.9486,-2.9617,-2.9616,-2.9615,-2.9615,-2.9927,-2.994,-2.9954,-3.0053,0,0,-2.9995,-3.0001,0,0,0,0,0,0,0,0,-2.8926,-2.8958,-2.9257,-2.927,-2.9285,-2.9507,-2.9431,-2.9676,-2.9617,-2.9493,-2.9615,-2.9614,-2.9793,-2.9817,-2.9877,-3.0068,-3.0081,-2.9996,-3.0004,-3.001,-3.0014,0,0,0,0,0,0,0,-2.8909,-2.8945,-2.929,-2.9261,-2.9278,-2.9312,-2.9346,-2.9478,-2.9644,-2.9504,-2.9514,-2.9549,-2.98,-2.9864,-2.9885,-3.0086,-2.9996,-3.0008,-3.0016,-3.0021,-3.0376,-3.0377,0,0,0,0,0,0,-2.8873,-2.893,-2.928,-2.9299,-2.91,-2.9321,-2.936,-2.9437,-2.9643,-2.9673,-2.9549,-2.9554,-2.9841,-2.987,-2.9897,-3.0029,-3.001,-3.0023,-3.003,-3.0375,-3.0376,-3.0378,0,0,0,0,0,0,-2.8863,-2.8903,-2.9268,-2.9118,-2.9167,-2.933,-2.9416,-2.9443,-2.9507,-2.9677,-2.9707,-2.9583,-2.9842,-2.9878,-3.0014,-3.0041,-3.0029,-3.0041,-3.0373,-3.0375,-3.0377,-3.029,0,0,0,0,0,0,-2.8848,-2.8899,-2.8937,-2.9117,-2.9174,-2.9378,-2.9418,-2.945,-2.953,-2.9539,-2.9717,-2.9746,-2.9844,-2.9993,-3.0027,-3.006,-3.0051,-3.0371,-3.0374,-3.0376,-3.0291,-3.0289,-3.0287,0,0,0,0,0,-2.8831,-2.8901,-2.8939,-2.898,-2.9226,-2.9379,-2.9412,-2.9522,-2.9531,-2.9572,-2.9682,-2.974,-3.0032,-3.0005,-3.0045,-3.0082,-3.037,-3.0373,-3.0376,-3.0292,-3.0289,-3.0287,0,0,0,0,0,0,-2.872,-2.8926,-2.8971,-2.9101,-2.9221,-2.9401,-2.9456,-2.9515,-2.9637,-2.964,-2.9773,-2.9812,-2.9936,-3.0023,-2.9989,-3.019,-3.0206,-3.0217,-3.0129,-3.0128,-3.0125,-3.0103,-3.0063,0,0,0,0,0,-2.8711,-2.8817,-2.8992,-2.909,-2.9148,-2.9291,-2.9362,-2.9437,-2.9567,-2.9619,-2.9739,-2.9863,-2.9984,-3.006,-3.018,-3.0304,-3.0346,-3.0349,-3.0347,-3.0344,-3.0353,-3.0427,-3.0431,-3.0388,-3.0388,-3.0388,0,0,-2.8693,-2.8819,-2.8878,-2.9071,-2.9173,-2.9281,-2.9333,-2.9445,-2.9528,-2.9637,-2.9772,-2.9863,-3.0012,-3.0142,-3.0206,-3.0218,-3.0374,-3.0348,-3.0345,-3.0355,-3.043,-3.0434,-3.0437,-3.039,-3.0389,-3.0389,0,0,-2.8716,-2.8821,-2.8914,-2.9016,-2.917,-2.9265,-2.9287,-2.9458,-2.9523,-2.9661,-2.9745,-2.9845,-3.0049,-3.0152,-3.0231,-3.0292,-3.0352,-3.0328,-3.0317,-3.0387,-3.039,-3.0394,-3.0418,-3.0424,-3.0335,-3.0335,-3.0335,0,-2.8674,-2.884,-2.8955,-2.9063,-2.9146,-2.9249,-2.9346,-2.9439,-2.9624,-2.9679,-2.969,-2.9949,-3.0057,-3.0213,-3.0228,-3.0288,-3.0319,-3.0308,-3.038,-3.0385,-3.039,-3.0415,-3.0423,-3.0331,-3.0332,-3.0332,-3.0332,0,-2.8782,-2.8895,-2.8953,-2.9129,-2.9218,-2.9319,-2.9451,-2.9528,-2.9594,-2.9688,-2.9828,-2.996,-3.0109,-3.0151,-3.0218,-3.0318,-3.0321,-3.0354,-3.0374,-3.0389,-3.0414,-3.0424,-3.0326,-3.0327,-3.0328,-3.0329,0,0,-2.8745,-2.8983,-2.9002,-2.9084,-2.9261,-2.9352,-2.9458,-2.9603,-2.9667,-2.9791,-2.9885,-3.0055,-3.0088,-3.0177,-3.0256,-3.0317,-3.036,-3.0344,-3.035,-3.0344,-3.048,-3.0455,-3.0464,-3.0399,-3.0402,-3.0403,-3.0468,0,-2.8793,-2.8987,-2.9094,-2.9245,-2.9352,-2.9451,-2.9544,-2.9664,-2.9754,-2.9859,-2.996,-3.0079,-3.0111,-3.0166,-3.0231,-3.034,-3.0389,-3.0337,-3.049,-3.0494,-3.0451,-3.0477,-3.045,-3.0505,-3.0479,-3.048,-3.0482,0,-2.8875,-2.8997,-2.9158,-2.9324,-2.9373,-2.9454,-2.9597,-2.9695,-2.9833,-2.9895,-2.9994,-3.0073,-3.019,-3.0199,-3.0364,-3.0326,-3.0395,-3.0458,-3.0463,-3.0482,-3.0489,-3.0498,-3.0525,-3.0533,-3.0498,-3.0496,-3.0495,0,-2.8833,-2.9038,-2.9161,-2.9228,-2.9424,-2.9479,-2.9564,-2.9701,-2.9781,-2.9906,-2.996,-3.0096,-3.0171,-3.0276,-3.0389,-3.0385,-3.0543,-3.0561,-3.0599,-3.0596,-3.063,-3.0626,-3.0669,-3.067,-3.067,-3.067,-3.067,0,-2.8877,-2.8971,-2.9145,-2.9221,-2.933,-2.9453,-2.9558,-2.9651,-2.9772,-2.9868,-2.9962,-3.0051,-3.0195,-3.0302,-3.0391,-3.0515,-3.0548,-3.0602,-3.0625,-3.0595,-3.0588,-3.0643,-3.0642,-3.0673,-3.0672,-3.0672,-3.0671,0,-2.8849,-2.8969,-2.911,-2.9284,-2.933,-2.9403,-2.9553,-2.9631,-2.9726,-2.9847,-2.9882,-3.0032,-3.0163,-3.0286,-3.0461,-3.0521,-3.0646,-3.0675,-3.0599,-3.0612,-3.0644,-3.0639,-3.0724,-3.0743,-3.0729,-3.0729,-3.0729,0,-2.887,-2.8945,-2.9127,-2.9198,-2.928,-2.9393,-2.9476,-2.9599,-2.9682,-2.9845,-2.9903,-3.0041,-3.0158,-3.0362,-3.0487,-3.0622,-3.0656,-3.0677,-3.0677,-3.0644,-3.0659,-3.0653,-3.0662,-3.0674,-3.0674,-3.0673,-3.0673,0,-2.8894,-2.895,-2.9065,-2.9201,-2.9297,-2.941,-2.9527,-2.958,-2.9726,-2.9814,-2.9948,-3.0038,-3.0217,-3.0353,-3.0502,-3.0591,-3.0657,-3.0672,-3.0688,-3.0659,-3.0612,-3.0639,-3.0594,-3.067,-3.067,-3.067,-3.067,-3.0671,-2.8893,-2.8965,-2.9104,-2.923,-2.933,-2.9437,-2.9519,-2.9624,-2.9738,-2.9892,-2.9958,-3.0094,-3.0232,-3.0439,-3.0527,-3.0636,-3.0651,-3.0674,-3.068,-3.0685,-3.0679,-3.0593,-3.0664,-3.0664,-3.0664,-3.0664,-3.0665,0,-2.8923,-2.9018,-2.9132,-2.9292,-2.939,-2.9442,-2.9574,-2.9654,-2.9773,-2.9895,-3.0007,-3.0163,-3.0295,-3.043,-3.0571,-3.0633,-3.0667,-3.0666,-3.0663,-3.0683,-3.0657,-3.063,-3.0636,-3.0636,-3.0636,-3.0636,-3.0636,-3.0636,-2.8951,-2.9076,-2.9147,-2.9323,-2.9418,-2.9552,-2.9623,-2.9722,-2.982,-2.9989,-3.0099,-3.0186,-3.0314,-3.0465,-3.0589,-3.0626,-3.0674,-3.0664,-3.0709,-3.0683,-3.0684,-3.0686,-3.0661,-3.0673,-3.0674,-3.0727,-3.0727,-3.0728]},{"header":{"parameterUnit":"m.s-1","parameterCategory":1,"la1":30.2991,"la2":30.254,"lo1":-89.0895,"lo2":-89.0444,"dy":0.0017,"dx":0.0017,"nx":28,"ny":28,"refTime":"2024-08-22T09:00:00:Z","depth":0,"parameterNumber":3,"parameterNumberName":"V-component_of_WINDS"},"data":[0,0,0,0,0,0,0,0,0,0,0,0,0,0,0,0,0,0,0,0,0,0,0,0,0,0,0,0,0,0,0,0,0,0,0,0,0,0,0,0,0,0,0,0,0,0,0,0,0,0,0,0,0,0,0,0,0,0,0.8626,0.8625,0,0.854,0.8539,0.8538,0.8494,0.8494,0.8494,0.8494,0.8401,0.8398,0.8396,0,0,0,0,0,0,0,0,0,0,0,0,0,0.8746,0.8745,0.8626,0.8625,0.8623,0.854,0.8539,0.8538,0.8494,0.8494,0.8494,0.8494,0.8401,0.8398,0.8396,0,0,0,0,0,0,0,0,0,0,0,0,0,0.8681,0.8744,0.8626,0.8592,0.8588,0.854,0.8539,0.8537,0.8494,0.8494,0.8494,0.8494,0.8402,0.8399,0.8395,0.8373,0,0,0.8384,0.8382,0,0,0,0,0,0,0,0,0.8684,0.8676,0.8598,0.8594,0.8589,0.8528,0.8547,0.8482,0.8494,0.8529,0.8494,0.8494,0.8442,0.8436,0.8419,0.8369,0.8365,0.8384,0.8381,0.838,0.8379,0,0,0,0,0,0,0,0.8689,0.868,0.8591,0.8597,0.8592,0.8579,0.857,0.8535,0.8487,0.8526,0.8523,0.8514,0.844,0.8423,0.8417,0.8364,0.8384,0.838,0.8378,0.8377,0.829,0.829,0,0,0,0,0,0,0.87,0.8684,0.8594,0.8589,0.8638,0.8577,0.8566,0.8547,0.8487,0.8478,0.8514,0.8512,0.8429,0.8421,0.8413,0.8383,0.838,0.8376,0.8374,0.829,0.829,0.829,0,0,0,0,0,0,0.8703,0.8692,0.8598,0.8635,0.8622,0.8575,0.8554,0.8546,0.8529,0.8478,0.8469,0.8505,0.8429,0.8419,0.8384,0.8379,0.8375,0.8371,0.829,0.829,0.829,0.8323,0,0,0,0,0,0,0.8706,0.8694,0.8686,0.8636,0.8621,0.8571,0.8554,0.8544,0.8523,0.852,0.8468,0.8459,0.8428,0.839,0.838,0.8374,0.8368,0.829,0.829,0.829,0.8322,0.8324,0.8326,0,0,0,0,0,0.8711,0.8698,0.8686,0.8675,0.861,0.8571,0.8562,0.8529,0.8523,0.8514,0.8481,0.846,0.8382,0.8386,0.8375,0.8368,0.829,0.829,0.829,0.8321,0.8324,0.8326,0,0,0,0,0,0,0.8747,0.8691,0.8677,0.8648,0.8615,0.8564,0.8552,0.8532,0.8499,0.8497,0.8456,0.8444,0.8413,0.8387,0.8393,0.8343,0.8334,0.8331,0.8362,0.8363,0.8365,0.8372,0.8365,0,0,0,0,0,0.8752,0.8727,0.8678,0.8657,0.8641,0.86,0.8581,0.8558,0.8522,0.8507,0.8472,0.8436,0.8403,0.8382,0.8348,0.8319,0.8306,0.8308,0.831,0.8312,0.831,0.8291,0.8291,0.8289,0.8289,0.8289,0,0,0.8762,0.8728,0.8714,0.8663,0.8635,0.8608,0.8588,0.856,0.8539,0.8502,0.8467,0.844,0.8397,0.8365,0.8348,0.8342,0.8308,0.8311,0.8313,0.831,0.8291,0.8291,0.8291,0.8289,0.8289,0.8289,0,0,0.8765,0.8737,0.8717,0.8689,0.8647,0.8619,0.8614,0.8566,0.8547,0.8512,0.8484,0.8457,0.8402,0.8372,0.8349,0.8342,0.832,0.8332,0.8341,0.8323,0.8323,0.8323,0.8319,0.8319,0.833,0.833,0.833,0,0.8782,0.8741,0.8708,0.8682,0.866,0.8627,0.8604,0.8579,0.8528,0.8512,0.8506,0.8436,0.8404,0.8364,0.8362,0.8345,0.8337,0.8337,0.8326,0.8326,0.8325,0.8321,0.832,0.8332,0.8332,0.8331,0.8331,0,0.8763,0.8735,0.8723,0.8676,0.8653,0.8629,0.859,0.857,0.8549,0.8522,0.8486,0.8447,0.8405,0.8394,0.8373,0.835,0.8348,0.8335,0.8324,0.8328,0.8323,0.8321,0.8334,0.8333,0.8333,0.8333,0,0,0.8787,0.8722,0.8718,0.8696,0.8648,0.8624,0.8598,0.8559,0.8542,0.8508,0.8484,0.8437,0.8425,0.84,0.8375,0.8359,0.8354,0.8348,0.8346,0.835,0.8326,0.8336,0.8334,0.8341,0.834,0.834,0.8329,0,0.8782,0.8736,0.8705,0.8669,0.8642,0.8611,0.8588,0.8554,0.8528,0.85,0.847,0.8437,0.8424,0.8408,0.8392,0.8359,0.8349,0.8359,0.8316,0.8315,0.8327,0.8332,0.8342,0.8334,0.8327,0.8327,0.8327,0,0.8771,0.8739,0.8702,0.8656,0.8643,0.8624,0.8585,0.8559,0.852,0.8502,0.8474,0.8449,0.8418,0.841,0.8366,0.8374,0.8354,0.8335,0.8334,0.8328,0.8321,0.8325,0.8331,0.833,0.8324,0.8324,0.8324,0,0.8791,0.8739,0.8709,0.8692,0.8638,0.8624,0.86,0.8562,0.854,0.8506,0.8491,0.8453,0.8432,0.8402,0.8366,0.8364,0.8325,0.8315,0.8308,0.8309,0.83,0.8301,0.8302,0.8289,0.8289,0.829,0.829,0,0.8789,0.8767,0.8718,0.87,0.8674,0.8637,0.8612,0.8586,0.8552,0.8526,0.8496,0.8473,0.8428,0.8399,0.8371,0.8338,0.8329,0.8312,0.8304,0.8314,0.8316,0.83,0.8299,0.8289,0.8289,0.8289,0.8289,0,0.8807,0.8773,0.8739,0.8691,0.8678,0.8661,0.8619,0.8599,0.8571,0.854,0.853,0.8486,0.845,0.8412,0.8362,0.8343,0.8311,0.8302,0.8325,0.8321,0.8316,0.8316,0.8305,0.8302,0.8293,0.8293,0.8293,0,0.8807,0.879,0.874,0.8722,0.87,0.8671,0.8649,0.8612,0.859,0.8545,0.853,0.8493,0.846,0.8404,0.8366,0.8328,0.8316,0.8315,0.831,0.832,0.8315,0.8316,0.8314,0.8316,0.8317,0.8317,0.8317,0,0.8812,0.8796,0.8766,0.8731,0.8706,0.8676,0.8644,0.8631,0.8587,0.8564,0.8528,0.8503,0.8453,0.8415,0.8373,0.8346,0.8324,0.8319,0.8315,0.8325,0.8339,0.833,0.8329,0.8319,0.8319,0.8319,0.8319,0.8319,0.882,0.8803,0.8766,0.8733,0.8706,0.8677,0.8657,0.8627,0.8596,0.8554,0.8534,0.8497,0.8458,0.8399,0.8373,0.8343,0.8336,0.8331,0.8329,0.8328,0.833,0.8345,0.8335,0.8335,0.8334,0.8334,0.8334,0,0.8822,0.8797,0.8768,0.8725,0.87,0.8683,0.8647,0.8626,0.8595,0.8561,0.853,0.8488,0.8451,0.8411,0.8371,0.8355,0.8343,0.8345,0.8346,0.834,0.8339,0.8346,0.8355,0.8355,0.8355,0.8355,0.8355,0.8355,0.882,0.879,0.877,0.8726,0.87,0.8665,0.8646,0.8619,0.8591,0.8546,0.8516,0.8491,0.8454,0.8411,0.8376,0.8365,0.8351,0.8356,0.8342,0.8342,0.834,0.8338,0.8345,0.8354,0.8354,0.8346,0.8346,0.8346]}]]